Regional Weather Roundup
Issued by NWS Newport/Morehead, NC

Home | Current Version | Previous Version | Text Only | Print | Product List | Glossary On
Versions: 1 2 3 4 5 6 7 8 9 10 11 12 13 14 15 16 17 18 19 20 21 22 23 24 25 26 27 28 29 30 31 32 33 34 35 36 37 38 39 40 41 42 43 44 45 46 47 48 49 50
000
ASUS42 KMHX 271022
RWRMHX
WEATHER ROUNDUP FOR EASTERN NORTH CAROLINA
NATIONAL WEATHER SERVICE NEWPORT/MOREHEAD CITY NC
500 AM EST TUE JAN 27 2015

NOTE: "FAIR" INDICATES FEW OR NO CLOUDS BELOW 12,000 FEET
WITH NO SIGNIFICANT WEATHER AND/OR OBSTRUCTIONS TO VISIBILITY

NCZ015>017-031-032-045>047-102-103-271100-
NORTH COAST

CITY           SKY/WX    TMP DP  RH WIND       PRES   REMARKS
EDENTON        CLOUDY    33  29  87 N10G18    29.69R
ELIZABETH CITY CLOUDY    33  29  85 NW15      29.67R
KITTY HAWK     LGT SNOW  33  33  97 NW8G17    29.63S
MANTEO         CLOUDY    34  32  93 NW13      29.65R

$$

NCZ045>047-081-094-103-104-271100-
CENTRAL COAST

CITY           SKY/WX    TMP DP  RH WIND       PRES   REMARKS
FRISCO         CLOUDY    37  34  89 N10G20    29.63R
SWANQUARTER    NOT AVBL

$$

NCZ095-097-098-100-101-271100-
SOUTHERN COAST

CITY           SKY/WX    TMP DP  RH WIND       PRES   REMARKS
BEAUFORT       CLOUDY    41  37  86 NW17      29.66R
CEDAR ISLAND   NOT AVBL
JACKSONVILLE   CLOUDY    42  34  73 NW14      29.69R
PINEY ISLAND     N/A    N/A N/A N/A MISG      29.65R
WILMINGTON     CLOUDY    43  38  82 NW16      29.70R


$$

NCZ011>013-027>030-043-044-078>080-089-090>093-098-271100-
COASTAL PLAIN

CITY           SKY/WX    TMP DP  RH WIND       PRES   REMARKS
AHOSKIE        CLOUDY    32  26  80 N7        29.71S
CLINTON        LGT RAIN  38  37  96 NW6       29.74R
ELIZABETHTOWN  CLOUDY    40  31  69 NW8       29.74R
GOLDSBORO      MOCLDY    37  36  98 N8        29.71R
GREENVILLE     CLOUDY    36  30  80 N6        29.74R
HAVELOCK       CLOUDY    41  35  79 N16       29.68R
KENANSVILLE    CLOUDY    38  35  91 NW8       29.73R
KINSTON        CLOUDY    38  30  73 N8G20     29.72R
NEW BERN       CLOUDY    42  33  70 NW13G18   29.69R
RICHLANDS      CLOUDY    39  32  75 NW6       29.71R
ROCKY MOUNT    CLOUDY    36  28  73 N13       29.73R
WASHINGTON     CLOUDY    36  32  86 NW6       29.68R
WHITEVILLE     CLOUDY    41  30  63 W7        29.73R

$$

AMZ130-135-150-152-154-156-158-170-250-252-270-ANZ085-086-088-633-658-670-271100-
MARINE OBSERVATIONS

STATION/POSITION TIME  TEMP    WIND        PRES    WAVE   SWELL
                       AIR SEA DIR/SP/G            HT/PER HT/PER
                 (UTC) (F)     (DEG/KT/KT) (MB)    (FT/S) (FT/S)
CHESAPEAKE LIGHT 1000   32     340/ 28/ 30 1004.1
64 E VA BEACH    1000   39 52  340/ 25/ 31 1001.1   14/11  10/11
DUCK             1000   33 44  330/ 20/ 23 1002.8
2 E DUCK         1000      44                N/A     9/11   5/11
10 NE DUCK       1000      45                N/A    11/11   5/11
OREGON INLET     1000   35 46  320/ 15/ 20 1003.5
13E OREGON INLT  1000      46                N/A    11/11   5/11
HATTERAS CG      1000   39 49  340/ 21/ 25 1003.7
DIAMOND BUOY     1000   43 66  330/ 23/ 31 1001.8    7/ 5   2/10
17 S OCRACOKE    NOT AVBL
CAPE LOOKOUT     1000   42     350/ 16/ 20 1003.9
BEAUFORT LAB     1000   41 50  340/ 11/ 17 1003.3
27 SE WRIGHTSVLE NOT AVBL
5 SE WRIGHTSVLE  1000   46 53  340/ 16/ 19 1005.2
225 S CAPE HAT   0931   61 72  290/ 27/ 35 1001.1   15/10   3/15
41 SE CHARLESTON 1000   47 68  310/ 27/ 33 1007.4    8/ 6   2/14

$$


USA.gov is the U.S. government's official web portal to all federal, state and local government web resources and services.